Location: Asheville, NC
(35.6000°N, 82.5500°W)
Time: 09:01:29
(UTC-04:00)

STARS - Pass Details

Date: 10 January 2018
Orbit: 624 x 642 km, 98.3° (Epoch: 26 April)

Event Time Altitude Azimuth Distance (km) Brightness Sun altitude
Rises 06:03:21 0° 176° (S) 2,892 ? -19.3°
Reaches altitude 10° 06:05:33 10° 180° (S) 1,988 ? -18.8°
Maximum altitude 06:09:48 56° 259° (W) 743 ? -18.0°
Enters shadow 06:12:16 24° 329° (NNW) 1,304 ? -17.5°
